Weather History for Grand Rapids, MI

Change the Weather History Date:

Friday, July 19, 2013

  Actual Average Record
Temperature  
Mean Temperature 87 °F 73 °F  
Max Temperature 96 °F 83 °F 96 °F (1935)
Min Temperature 78 °F 62 °F 47 °F (1979)
Degree Days  
Heating Degree Days 0 0  
Month to date heating degree days 1 0  
Since 1 June heating degree days 41 45  
Since 1 July heating degree days 1 0  
Cooling Degree Days 22 8  
Month to date cooling degree days 217 149  
Year to date cooling degree days 448 341  
Since 1 June cooling degree days 366 294  
Growing Degree Days 38 (Base 50)    
Moisture  
Dew Point 70 °F    
Average Humidity 57    
Maximum Humidity 74    
Minimum Humidity 39    
Precipitation  
Precipitation 0.11 in 0.12 in 1.80 in (1902)
Month to date precipitation 1.45 2.30  
Year to date precipitation 28.66 19.65  
Snow  
Snow 0.00 in 0.00 in 0.00 in (2006)
Month to date snowfall 0.0 0.0  
Since 1 June snowfall 0.0 0.0  
Since 1 July snowfall 0.0 0.0  
Snow Depth 0.00 in    
Sea Level Pressure  
Sea Level Pressure 29.81 in    
Wind  
Wind Speed 15 mph (WSW)    
Max Wind Speed 41 mph    
Max Gust Speed 54 mph    
Visibility 10 miles    
Events Rain , Thunderstorm    
T = Trace of Precipitation, MM = Missing Value Source: NWS Daily Summary

Daily Weather History Graph

Daily Weather History Graph

Search for Another Location

Airport:

Trip Planner

Search our weather history database for the weather conditions in past years. The results will help you decide how hot, cold, wet, or windy it might be!

Date:

Astronomy

Jul. 19, 2013 Rise Set
Actual Time 6:20 AM EDT 9:15 PM EDT
Civil Twilight 5:47 AM EDT 9:49 PM EDT
Nautical Twilight 5:04 AM EDT 10:31 PM EDT
Astronomical Twilight 4:14 AM EDT 11:21 PM EDT
Moon 6:17 PM EDT (7/19) 3:01 AM EDT (7/19)
Length of Visible Light 16h 01m
Length of Day
14h 54m
Waxing Gibbous, 86% of the Moon is Illuminated
Jul 19
Waxing Gibbous
Jul 22
Full
Jul 29
Last Quarter
Aug 6
New
Aug 14
First Quarter

Hourly Weather History & Observations

Time (EDT) Temp. Heat Index Dew Point Humidity Pressure Visibility Wind Dir Wind Speed Gust Speed Precip Events Conditions
12:53 AM 82.0 °F 86.3 °F 71.1 °F 69% 29.94 in 10.0 mi SW 10.4 mph - N/A   Clear
1:53 AM 81.0 °F 85.2 °F 72.0 °F 74% 29.92 in 10.0 mi SW 10.4 mph - N/A   Clear
2:53 AM 81.0 °F 85.2 °F 72.0 °F 74% 29.90 in 10.0 mi SW 11.5 mph - N/A   Clear
3:53 AM 81.0 °F 85.2 °F 72.0 °F 74% 29.88 in 10.0 mi SW 11.5 mph - N/A   Clear
4:53 AM 80.1 °F 83.8 °F 72.0 °F 76% 29.87 in 10.0 mi SW 11.5 mph - N/A   Clear
5:53 AM 80.1 °F 83.8 °F 72.0 °F 76% 29.86 in 10.0 mi SW 10.4 mph - N/A   Clear
6:53 AM 80.1 °F 83.8 °F 72.0 °F 76% 29.86 in 10.0 mi SW 10.4 mph - N/A   Clear
7:53 AM 82.0 °F 86.7 °F 72.0 °F 71% 29.86 in 10.0 mi SW 12.7 mph - N/A   Clear
8:53 AM 84.9 °F 90.1 °F 71.1 °F 63% 29.86 in 10.0 mi SW 17.3 mph - N/A   Partly Cloudy
9:53 AM 88.0 °F 92.9 °F 70.0 °F 55% 29.86 in 10.0 mi WSW 15.0 mph - N/A   Scattered Clouds
10:53 AM 91.0 °F 96.6 °F 70.0 °F 50% 29.84 in 10.0 mi WSW 24.2 mph 31.1 mph N/A   Mostly Cloudy
11:53 AM 91.9 °F 95.9 °F 68.0 °F 45% 29.82 in 10.0 mi WSW 27.6 mph 38.0 mph N/A   Mostly Cloudy
12:53 PM 93.0 °F 97.4 °F 68.0 °F 44% 29.80 in 10.0 mi WSW 27.6 mph 35.7 mph N/A   Mostly Cloudy
1:53 PM 95.0 °F 99.0 °F 66.9 °F 40% 29.77 in 10.0 mi SW 27.6 mph 41.4 mph N/A   Mostly Cloudy
2:53 PM 91.9 °F 95.4 °F 66.9 °F 44% 29.77 in 10.0 mi WSW 24.2 mph 39.1 mph 0.00 in   Mostly Cloudy
3:19 PM 89.6 °F 92.2 °F 66.2 °F 46% 29.81 in 9.0 mi West 24.2 mph 31.1 mph 0.00 in Rain , Thunderstorm Light Thunderstorms and Rain
3:23 PM 84.2 °F 88.4 °F 69.8 °F 62% 29.81 in 2.0 mi NW 23.0 mph 39.1 mph 0.00 in Rain , Thunderstorm Heavy Thunderstorms and Rain
3:28 PM 80.6 °F 83.9 °F 69.8 °F 70% 29.79 in 4.0 mi NW 11.5 mph 39.1 mph 0.06 in Rain , Thunderstorm Light Thunderstorms and Rain
3:53 PM 89.1 °F 93.7 °F 69.1 °F 52% 29.75 in 10.0 mi WSW 23.0 mph 31.1 mph 0.07 in   Mostly Cloudy
4:09 PM 89.6 °F 93.4 °F 68.0 °F 49% 29.78 in 10.0 mi WSW 26.5 mph 34.5 mph N/A Thunderstorm Thunderstorm
4:19 PM 82.4 °F 85.4 °F 68.0 °F 62% 29.79 in 8.0 mi WSW 28.8 mph 54.1 mph 0.00 in Rain , Thunderstorm Light Thunderstorms and Rain
4:43 PM 84.2 °F 88.4 °F 69.8 °F 62% 29.77 in 10.0 mi SW 11.5 mph - 0.00 in   Mostly Cloudy
4:53 PM 84.9 °F 89.4 °F 70.0 °F 61% 29.75 in 10.0 mi SW 9.2 mph - 0.00 in   Mostly Cloudy
5:53 PM 90.0 °F 95.4 °F 70.0 °F 52% 29.74 in 10.0 mi WSW 13.8 mph 21.9 mph N/A   Mostly Cloudy
6:53 PM 91.0 °F 95.2 °F 68.0 °F 47% 29.72 in 10.0 mi West 17.3 mph 27.6 mph N/A   Scattered Clouds
7:53 PM 89.1 °F 93.7 °F 69.1 °F 52% 29.73 in 10.0 mi West 13.8 mph - N/A   Scattered Clouds
8:53 PM 86.0 °F 90.7 °F 70.0 °F 59% 29.73 in 10.0 mi WSW 10.4 mph - N/A   Mostly Cloudy
9:53 PM 82.9 °F 87.0 °F 70.0 °F 65% 29.72 in 10.0 mi WSW 6.9 mph - N/A   Scattered Clouds
10:53 PM 82.0 °F 85.9 °F 70.0 °F 67% 29.73 in 10.0 mi SW 9.2 mph - N/A   Mostly Cloudy
11:39 PM 80.6 °F 83.9 °F 69.8 °F 70% 29.76 in 10.0 mi SSW 9.2 mph - N/A Thunderstorm Thunderstorm
11:53 PM 79.0 °F - 69.1 °F 72% 29.75 in 10.0 mi SSW 6.9 mph - N/A Thunderstorm Thunderstorm